STARLINK-5010 (53930 NORAD) Tracking and Keplerian Element Data

This shows tracking and keplerian element data for the satellite.

Feedback or suggestion? Click here.




ElementValue
Catalog53930
NameSTARLINK-5010
Epoch Orbit130
Epoch Day324.91667824
Epoch Year2022
RAAN331.1262
Inclination53.2133
Eccentricity0.0004198
Argument of Perigee1.7617
Mean Anonmoly22.5581
Mean Motion15.73142747
Decay Rate0.00040917
L11 53930U 22119AW 22324.91667824 .00040917 00000+0 29515-3 0 9996
L22 53930 53.2133 331.1262 0004198 1.7617 22.5581 15.73142747 1309



Live tracking and technical data element details for STARLINK-5010 (NORAD 53930). STARLINK-5010 can be tracked NOW for your location showing map with azimuth and elevation plus other details from your city location.







IsCatalogInMostPopularTable: catalog: 53930, numindb: 1
Update: records affected: 1



GetName: 53930 STARLINK-5010

Hit Count: updated at: Mon, 28 Nov 2022 21:40:51 GMT